TimeEDT,TemperatureF,Dew PointF,Humidity,Sea Level PressureIn,VisibilityMPH,Wind Direction,Wind SpeedMPH,Gust SpeedMPH,PrecipitationIn,Events,Conditions,WindDirDegrees,DateUTC
12:53 AM,32.0,28.9,88,30.02,10.0,SSW,3.5,-,N/A,,Clear,200,2013-03-13 04:53:00
1:45 AM,33.8,30.2,87,30.00,2.0,West,10.4,-,0.00,Snow,Light Snow,260,2013-03-13 05:45:00
1:53 AM,33.1,30.0,89,30.02,2.0,WSW,6.9,-,0.00,Snow,Light Snow,250,2013-03-13 05:53:00
1:59 AM,33.8,30.2,87,29.99,3.0,WSW,8.1,-,0.00,Snow,Light Snow,250,2013-03-13 05:59:00
2:09 AM,33.8,30.2,87,29.99,6.0,WSW,6.9,-,0.00,Snow,Light Snow,240,2013-03-13 06:09:00
2:39 AM,33.8,30.2,87,30.00,8.0,West,8.1,-,0.00,,Mostly Cloudy,260,2013-03-13 06:39:00
2:50 AM,33.8,30.2,87,30.00,9.0,West,10.4,-,0.00,,Overcast,270,2013-03-13 06:50:00
3:10 AM,32.0,28.4,87,29.99,10.0,West,6.9,-,N/A,,Scattered Clouds,260,2013-03-13 07:10:00
3:42 AM,32.0,28.4,87,29.98,10.0,West,10.4,-,N/A,,Mostly Cloudy,260,2013-03-13 07:42:00
3:53 AM,32.0,28.9,88,30.00,10.0,West,8.1,-,N/A,,Overcast,260,2013-03-13 07:53:00
4:15 AM,30.2,28.4,93,29.98,10.0,West,8.1,-,N/A,,Partly Cloudy,270,2013-03-13 08:15:00
4:53 AM,30.9,27.0,85,30.00,10.0,WSW,6.9,-,N/A,,Scattered Clouds,250,2013-03-13 08:53:00
5:53 AM,30.9,28.0,89,29.99,10.0,WSW,6.9,-,N/A,,Overcast,240,2013-03-13 09:53:00
6:53 AM,32.0,28.0,85,29.99,10.0,WSW,8.1,-,N/A,,Overcast,250,2013-03-13 10:53:00
7:53 AM,30.9,25.0,79,30.01,5.0,WNW,10.4,18.4,0.00,Snow,Light Snow,290,2013-03-13 11:53:00
8:31 AM,30.2,21.2,69,30.01,10.0,WNW,10.4,19.6,0.00,,Overcast,300,2013-03-13 12:31:00
8:53 AM,30.0,23.0,75,30.04,10.0,WNW,9.2,-,0.00,,Overcast,290,2013-03-13 12:53:00
9:08 AM,30.2,23.0,75,30.02,4.0,NW,11.5,17.3,0.00,Snow,Light Snow,310,2013-03-13 13:08:00
9:16 AM,30.2,23.0,75,30.03,2.5,NW,10.4,-,0.00,Snow,Light Snow,310,2013-03-13 13:16:00
9:24 AM,30.2,23.0,75,30.03,3.0,NW,8.1,-,0.00,Snow,Light Snow,310,2013-03-13 13:24:00
9:53 AM,30.0,19.0,64,30.06,9.0,WNW,9.2,20.7,0.00,,Overcast,300,2013-03-13 13:53:00
10:00 AM,30.2,19.4,64,30.04,10.0,WNW,10.4,-,N/A,,Mostly Cloudy,300,2013-03-13 14:00:00
10:53 AM,30.0,19.0,64,30.09,10.0,WNW,16.1,24.2,N/A,,Mostly Cloudy,300,2013-03-13 14:53:00
11:53 AM,30.0,21.0,69,30.11,5.0,WNW,15.0,20.7,0.00,Snow,Light Snow,290,2013-03-13 15:53:00
12:01 PM,28.4,21.2,74,30.09,2.0,WNW,12.7,23.0,0.00,Snow,Light Snow,300,2013-03-13 16:01:00
12:08 PM,28.4,21.2,74,30.09,1.5,NW,12.7,20.7,0.00,Snow,Light Snow,310,2013-03-13 16:08:00
12:13 PM,28.4,21.2,74,30.10,2.5,West,13.8,21.9,0.00,Snow,Light Snow,280,2013-03-13 16:13:00
12:29 PM,28.4,21.2,74,30.10,1.8,WNW,15.0,24.2,0.00,Snow,Light Snow,290,2013-03-13 16:29:00
12:42 PM,30.2,21.2,69,30.10,3.0,WNW,13.8,19.6,0.00,Snow,Light Snow,300,2013-03-13 16:42:00
12:47 PM,30.2,21.2,69,30.10,2.0,WNW,13.8,21.9,0.00,Snow,Light Snow,290,2013-03-13 16:47:00
12:51 PM,28.4,21.2,74,30.10,1.0,WNW,10.4,21.9,0.00,Snow,Light Snow,300,2013-03-13 16:51:00
12:53 PM,28.9,21.9,75,30.13,1.0,NW,11.5,19.6,0.00,Snow,Light Snow,310,2013-03-13 16:53:00
1:06 PM,28.4,21.2,74,30.11,0.8,WNW,11.5,20.7,0.01,Snow,Light Snow,300,2013-03-13 17:06:00
1:10 PM,30.2,21.2,69,30.11,1.5,WNW,10.4,20.7,0.01,Snow,Light Snow,290,2013-03-13 17:10:00
1:17 PM,30.2,21.2,69,30.11,9.0,WNW,12.7,19.6,0.01,Snow,Light Snow,300,2013-03-13 17:17:00
1:25 PM,28.4,21.2,74,30.12,1.0,WNW,20.7,29.9,0.01,Snow,Light Snow,290,2013-03-13 17:25:00
1:29 PM,26.6,21.2,80,30.12,0.2,NW,12.7,29.9,0.01,Snow,Heavy Snow,310,2013-03-13 17:29:00
1:45 PM,28.4,24.8,86,30.11,1.2,NW,9.2,-,0.02,Snow,Light Snow,310,2013-03-13 17:45:00
1:47 PM,28.4,23.0,80,30.11,3.0,WNW,10.4,-,0.02,Snow,Light Snow,300,2013-03-13 17:47:00
1:53 PM,30.0,21.9,72,30.14,9.0,WNW,11.5,-,0.02,Snow,Light Snow,300,2013-03-13 17:53:00
2:01 PM,30.2,21.2,69,30.11,2.0,NW,16.1,20.7,0.00,Snow,Light Snow,310,2013-03-13 18:01:00
2:04 PM,28.4,19.4,69,30.11,1.5,NW,11.5,20.7,0.00,Snow,Light Snow,310,2013-03-13 18:04:00
2:11 PM,30.2,19.4,64,30.11,2.5,NW,13.8,18.4,0.00,Snow,Light Snow,310,2013-03-13 18:11:00
2:18 PM,30.2,19.4,64,30.11,9.0,WNW,9.2,18.4,0.00,,Overcast,300,2013-03-13 18:18:00
2:53 PM,28.9,21.0,72,30.15,9.0,WNW,16.1,31.1,0.00,,Overcast,300,2013-03-13 18:53:00
3:53 PM,32.0,19.9,61,30.15,9.0,WNW,12.7,21.9,N/A,,Overcast,300,2013-03-13 19:53:00
4:53 PM,30.0,19.9,66,30.18,9.0,WNW,13.8,26.5,0.00,,Overcast,300,2013-03-13 20:53:00
5:12 PM,30.2,21.2,69,30.16,2.0,NW,19.6,28.8,0.00,Snow,Light Snow,320,2013-03-13 21:12:00
5:19 PM,30.2,21.2,69,30.16,1.8,NW,13.8,28.8,0.00,Snow,Light Snow,320,2013-03-13 21:19:00
5:21 PM,30.2,21.2,69,30.16,3.0,NW,10.4,28.8,0.00,Snow,Light Snow,310,2013-03-13 21:21:00
5:53 PM,30.0,19.0,64,30.20,6.0,NW,16.1,23.0,0.00,Snow,Light Snow,320,2013-03-13 21:53:00
6:53 PM,30.0,18.0,61,30.22,10.0,WNW,12.7,23.0,0.00,,Overcast,300,2013-03-13 22:53:00
7:53 PM,28.9,17.1,61,30.24,10.0,WNW,10.4,19.6,0.00,,Overcast,290,2013-03-13 23:53:00
8:53 PM,28.0,17.1,63,30.25,9.0,NW,9.2,23.0,0.00,,Overcast,310,2013-03-14 00:53:00
9:53 PM,28.0,18.0,66,30.26,10.0,NW,10.4,17.3,N/A,,Overcast,310,2013-03-14 01:53:00
10:53 PM,28.0,17.1,63,30.28,9.0,NW,12.7,20.7,0.00,Snow,Light Snow,310,2013-03-14 02:53:00
11:53 PM,28.0,17.1,63,30.28,10.0,WNW,9.2,16.1,0.00,,Overcast,300,2013-03-14 03:53:00